Regional Weather Roundup
Issued by NWS

Home | Current Version | Previous Version | Text Only | Print | Product List | Glossary On
Versions: 1 2 3 4 5 6 7 8 9 10 11 12 13 14 15 16 17 18 19 20 21 22 23 24 25 26 27 28 29 30 31 32 33 34 35 36 37 38 39 40 41 42 43 44 45 46 47 48 49 50
373
ASUS44 KLIX 222310
RWRLA
LOUISIANA WEATHER ROUNDUP
NATIONAL WEATHER SERVICE NEW ORLEANS LA
600 PM CDT TUE JUL 22 2014

NOTE: "FAIR" INDICATES FEW OR NO CLOUDS BELOW 12,000 FEET WITH NO
      SIGNIFICANT WEATHER AND/OR OBSTRUCTIONS TO VISIBILITY.
      SKY/WX - SKY CONDITION AND SIGNIFICANT WEATHER.
      TMP - AIR TEMPERATURE.    DP   - DEWPOINT TEMPERATURE.
      RH  - RELATIVE HUMIDITY.  PRES - PRESSURE.
      HX  - HEAT INDEX.         WCI  - WIND CHILL INDEX.

*  THESE STATIONS ARE NOT NWS OR FAA STATIONS AND ARE NOT UNDER
   NWS QUALITY CONTROL.

LAZ040-048-061>063-065-066-069-230000-
SOUTHEAST LOUISIANA

CITY           SKY/WX    TMP DP  RH WIND       PRES   REMARKS
N.O. AUDUBON     N/A     83  73  72 MISG        N/A
N.O. INTL ARPT TSTM      81  71  71 S5        29.99F
N.O. LAKEFRONT CLOUDY    84  73  69 S10       30.01S
N.O. DOWNTOWN* FAIR      84  70  61 S5        30.00F
SLIDELL        LGT RAIN  79  74  84 NE7       30.01R
BATON ROUGE    CLOUDY    82  73  74 VRB5      30.01R
BOOTHVILLE     LGT RAIN  77  72  84 CALM      30.00F
BELLE CHASSE   NOT AVBL
BOGALUSA*      FAIR      75  70  83 SE3       30.04S
GALLIANO*      NOT AVBL
NEW ROADS*     TSTM      78  74  88 N13G20    30.02R
GONZALES*      FAIR      87  72  61 N3        29.98S
HAMMOND*       CLOUDY    86  70  58 E9        30.02R
HOUMA*         MOSUNNY   82  72  69 E6        30.01S FOG
PORT FOURCHON* CLEAR     81  75  83 NE8       30.02F

$$

LAZ041-044-053-054-230000-
SOUTHWEST LOUISIANA

CITY           SKY/WX    TMP DP  RH WIND       PRES   REMARKS
LAKE CHARLES   MOSUNNY   90  71  53 NE10      29.98F HX  96
LAFAYETTE      SUNNY     89  67  47 N10       29.99S
PATTERSON      MOSUNNY   88  70  55 N5        30.03R
SALT POINT       N/A     91  76  61 SE3       29.98S HX 103
NEW IBERIA     SUNNY     90  68  48 N5        29.99S
CHENAULT AIRPK MOSUNNY   90  66  45 N7        30.00S

$$

LAZ027-028-230000-
CENTRAL LOUISIANA

CITY           SKY/WX    TMP DP  RH WIND       PRES   REMARKS
FORT POLK      SUNNY     88  68  51 N8        30.00F
ALEXANDRIA INT SUNNY     91  69  48 NE3       29.98F HX  96
ALEXANDRIA     MOSUNNY   89  71  55 CALM      30.01S HX  95

$$

LAZ001-002-230000-
NORTHWEST LOUISIANA

CITY           SKY/WX    TMP DP  RH WIND       PRES   REMARKS
SHREVEPORT     SUNNY     90  67  46 CALM      30.02F
BARKSDALE AFB  PTSUNNY   89  69  51 E3        30.02F
DTN SHREVEPORT SUNNY     89  67  47 NE3       30.02F

$$

LAZ014-016-230000-
NORTHEAST LOUISIANA

CITY           SKY/WX    TMP DP  RH WIND       PRES   REMARKS
MONROE         SUNNY     90  68  48 N6        30.02F
TALLULAH       CLOUDY    82  73  74 NE5       30.01F

$$




USA.gov is the U.S. government's official web portal to all federal, state and local government web resources and services.